Wetbulb
61.16 58.77 60.03 59.69 54.30 54.02 50.45 51.72 55.08 53.92 54.06 56.96 59.31 56.44 56.45 58.05 55.93 53.15 66.60 68.27 69.64 70.31 71.64 71.41 71.54 71.54 72.12 71.53 71.87 72.35 71.79 71.63 71.73 72.33 72.32 72.12 72.17 72.30 72.29 71.66 71.42 72.28 72.87 72.17 71.47 71.25 71.21 70.80 70.81
58.97 57.85 56.78 55.00 51.04 49.06 50.07 53.12 53.99 55.86 57.65 58.92 59.19 58.99 58.01 57.44 62.41 62.87 64.95 68.55 70.38 70.88 71.28 71.35 71.63 71.63 72.07 72.23 72.34 71.97 71.67 71.77 71.71 72.21 72.64 72.00 72.32 72.48 72.04 71.97 71.07 71.39 71.66 70.21 69.71 69.95 69.53 68.84 69.15
55.46 55.50 54.27 51.30 50.06 47.33 47.94 52.68 54.11 57.26 58.68 58.77 58.65 61.50 60.25 59.86 62.93 63.91 67.72 69.24 70.73 70.53 71.76 71.64 71.68 71.66 71.98 72.03 71.93 71.77 71.85 71.58 71.50 71.91 71.96 72.40 71.92 71.40 71.79 71.41 71.23 70.60 70.64 69.72 69.78 69.03 68.08 68.15 68.05
54.44 54.33 50.32 46.63 44.76 49.20 51.60 54.17 56.84 56.42 57.97 59.53 60.32 58.04 61.73 64.84 63.84 65.94 68.38 69.53 69.47 69.26 71.51 71.14 70.91 71.31 71.82 71.98 71.81 71.74 71.31 70.69 70.65 71.25 71.69 72.03 70.89 70.89 71.19 71.15 70.85 70.77 70.59 69.82 69.22 68.40 68.15 68.27 67.74
51.43 50.79 46.82 44.64 43.59 46.05 51.25 55.83 57.63 55.60 56.98 58.75 59.71 57.20 58.81 63.81 66.77 67.68 68.29 68.61 67.58 68.93 71.42 71.54 70.27 71.05 71.68 71.82 71.30 71.28 70.91 70.64 70.55 70.65 71.11 71.62 71.04 70.66 71.18 70.73 70.75 70.64 70.11 68.99 68.55 68.15 68.52 67.92 67.32
47.96 48.05 43.47 41.15 42.83 45.45 47.69 54.15 57.04 56.98 57.78 58.78 58.83 58.57 58.88 64.85 65.75 66.44 67.34 68.32 69.64 68.87 69.57 71.39 71.05 71.05 70.88 71.02 70.59 70.12 69.98 70.32 70.47 70.00 69.97 70.21 70.78 70.90 70.61 70.26 70.00 69.56 69.02 68.47 68.24 68.04 67.95 67.32 66.87
46.63 46.19 43.15 42.06 42.50 44.48 47.74 57.09 56.65 57.21 57.55 57.96 61.25 57.23 58.98 62.09 64.96 66.01 67.47 68.65 68.92 68.86 69.13 70.18 71.19 71.09 70.11 69.30 69.14 69.07 69.40 69.69 69.90 69.55 68.90 68.55 69.08 69.69 69.83 69.56 69.17 68.63 68.02 67.97 67.72 67.39 66.94 66.76 66.64
47.93 46.83 41.50 42.81 42.30 43.74 54.59 58.41 58.39 57.52 56.67 62.15 62.27 56.83 57.16 60.81 64.87 66.77 66.79 67.46 68.20 68.19 68.27 68.48 70.41 70.43 70.38 70.46 68.44 68.66 68.61 68.84 69.11 69.13 68.26 67.42 67.85 68.49 68.47 68.16 68.18 67.90 67.51 67.30 66.92 66.49 66.35 66.43 65.97
46.98 44.41 41.88 43.44 42.47 45.29 57.22 56.90 59.85 61.53 59.37 60.27 61.31 61.44 62.75 63.57 64.82 64.19 64.37 65.29 66.35 66.42 67.13 67.72 68.53 69.72 69.69 69.37 69.28 68.83 68.96 68.56 68.43 68.65 68.19 67.17 66.89 67.14 66.41 66.42 66.80 66.60 66.07 66.01 66.29 66.37 66.42 65.63 65.71
46.32 43.76 43.68 46.74 47.00 46.76 53.33 57.38 58.61 57.90 58.21 58.45 59.61 62.37 63.55 63.06 62.85 61.65 62.65 63.01 64.05 64.69 65.20 66.48 66.86 68.73 68.79 68.02 69.23 69.33 68.94 69.07 69.12 69.02 68.87 68.05 68.25 67.57 66.60 66.66 66.70 66.53 66.20 66.28 66.21 66.15 65.83 68.11 69.95
44.74 44.17 46.31 47.24 48.42 49.90 51.15 54.09 59.87 57.65 55.89 58.65 58.65 59.68 61.58 61.35 61.98 62.62 62.50 63.24 63.89 65.40 64.77 65.21 65.70 68.48 68.33 67.80 68.19 68.07 68.32 68.57 69.03 69.27 69.41 69.62 69.24 69.68 68.93 69.01 67.96 68.38 67.07 68.47 69.42 69.90 69.75 68.95 68.96
43.34 45.82 46.74 47.80 49.04 50.52 50.34 56.40 57.08 58.16 58.60 61.67 62.39 61.87 61.37 61.28 60.87 61.37 61.94 62.83 63.88 64.65 65.04 65.71 65.80 67.62 68.28 68.05 67.81 67.68 67.64 68.25 68.66 69.71 69.74 69.41 69.47 69.58 69.81 69.42 68.32 69.45 69.56 69.51 69.45 65.46 63.44 64.47 67.97
43.63 45.29 46.49 47.58 48.60 49.30 54.00 52.58 54.97 57.13 60.47 61.98 62.67 61.27 60.38 60.63 60.94 61.79 62.58 63.47 64.19 63.81 64.89 65.25 66.94 67.36 67.56 67.71 67.34 67.50 67.57 68.27 69.44 69.34 69.20 69.88 69.41 69.09 69.12 68.98 68.32 67.85 67.73 67.16 65.66 62.87 61.96 65.22 63.07
44.81 44.91 45.21 45.74 46.68 46.59 48.32 51.57 55.76 56.47 61.82 60.98 60.94 59.82 60.07 60.00 60.50 61.08 61.82 62.41 63.67 63.74 64.52 66.42 66.76 67.44 67.48 67.26 67.55 67.36 67.98 68.35 68.28 68.41 67.87 68.45 69.07 68.44 68.10 66.36 64.45 63.50 63.32 62.71 61.66 61.03 63.88 64.49 62.45
43.81 42.00 43.43 44.06 45.61 46.30 52.03 49.06 52.38 57.66 61.14 60.18 59.62 59.51 60.14 60.16 60.51 60.51 61.87 62.51 63.64 63.96 64.93 65.78 66.53 67.43 67.27 67.01 67.36 67.62 67.70 66.96 66.84 66.16 66.78 66.88 66.66 67.14 66.14 63.75 62.31 61.36 61.59 60.84 59.86 61.03 61.58 58.94 56.79
41.59 41.47 38.48 42.23 44.76 46.53 51.17 44.23 49.72 58.77 60.52 59.08 59.96 59.76 60.28 60.65 60.27 61.14 62.07 62.81 63.75 64.02 64.31 65.96 65.94 66.42 66.77 66.94 67.05 67.06 66.69 65.35 64.30 64.78 66.04 64.67 63.95 64.18 63.15 62.05 60.64 60.01 60.19 59.29 58.54 59.56 57.90 56.51 54.81
38.37 35.89 36.54 39.24 44.56 51.01 50.69 44.33 50.59 58.69 60.10 59.39 60.04 60.37 60.72 60.90 61.42 61.98 62.43 62.97 63.68 64.39 64.69 65.29 66.43 66.35 66.77 66.66 65.56 65.57 64.22 63.21 61.97 62.87 63.76 62.27 61.73 61.04 61.41 60.16 58.82 59.23 58.75 58.09 57.11 57.52 57.32 54.25 52.52
35.32 35.32 36.75 38.50 41.66 49.24 49.78 48.33 52.40 57.12 58.54 59.19 60.40 60.86 60.77 60.99 61.73 62.54 63.23 64.01 64.37 64.92 65.47 66.01 66.25 66.07 65.45 63.97 62.10 61.11 60.37 59.42 59.77 60.83 60.67 60.34 60.11 59.22 59.16 58.06 57.77 58.00 56.95 56.06 55.39 55.88 55.79 53.96 51.42
37.52 36.71 36.45 38.33 40.64 40.17 45.33 49.78 50.97 52.69 57.92 57.37 58.58 60.27 61.03 61.33 63.32 64.03 64.56 65.20 64.94 65.48 65.36 65.49 64.34 63.62 62.95 61.55 58.75 56.71 56.96 56.83 57.55 58.41 58.17 58.47 58.35 57.76 57.62 56.89 56.21 54.80 54.45 55.04 55.72 54.74 52.85 50.16 49.83
37.87 36.73 36.21 38.16 39.70 39.90 40.00 41.13 46.82 48.07 55.03 58.22 58.52 59.44 60.95 61.59 63.13 63.78 64.65 65.29 64.50 64.60 64.39 63.91 64.01 62.05 62.63 63.23 60.86 59.62 57.49 56.41 57.08 56.38 56.39 56.96 56.68 56.50 56.23 56.19 55.26 54.09 53.72 54.19 54.69 54.18 52.04 50.52 50.85
36.19 36.12 35.37 35.96 38.05 38.92 38.43 38.70 40.73 45.91 52.87 56.27 58.98 60.05 61.33 61.89 62.38 63.18 63.91 64.50 64.84 64.56 64.60 63.12 62.02 62.28 62.88 61.80 57.02 55.05 54.22 54.16 54.19 54.41 54.72 54.96 55.40 55.26 54.95 54.72 54.96 55.02 54.56 53.72 54.13 54.02 53.08 50.22 50.29
33.71 38.13 37.78 36.69 36.63 34.07 38.48 32.75 37.86 41.97 46.47 53.42 56.65 58.87 59.94 61.15 62.71 63.13 63.18 64.03 64.36 64.87 64.94 64.61 63.74 62.82 61.52 58.99 58.80 57.34 58.49 56.43 56.62 55.26 54.62 54.31 54.63 53.85 53.80 53.58 53.99 54.18 53.40 53.13 53.62 53.30 53.49 52.40 50.23
37.11 39.24 38.29 37.80 36.60 35.59 35.04 34.60 38.15 43.02 42.86 46.31 54.52 57.55 59.55 60.40 61.43 61.49 62.36 63.97 64.78 64.63 63.84 63.79 63.28 61.82 60.62 59.18 59.89 59.41 58.66 58.11 55.23 53.84 53.43 53.70 53.47 53.28 52.72 52.82 52.73 52.55 52.66 52.01 52.49 52.06 52.10 52.32 51.19
40.43 37.46 36.25 35.51 35.74 30.93 35.26 35.32 36.12 40.49 44.18 45.87 51.11 56.21 57.77 58.68 60.49 61.60 62.83 63.60 64.00 65.09 63.44 62.90 61.74 61.20 59.69 59.04 59.14 59.59 58.31 54.58 52.73 52.44 52.08 51.84 50.85 51.86 51.72 51.17 51.55 51.22 50.72 50.34 50.11 50.79 51.24 50.95 50.31
38.76 36.50 30.78 29.59 29.61 30.16 34.13 34.03 36.75 38.95 40.76 47.42 50.80 53.38 55.75 57.35 59.03 60.12 60.51 61.19 62.46 63.20 62.28 61.40 60.47 60.56 59.62 58.81 58.51 58.67 57.21 55.54 54.71 52.71 50.61 48.38 48.71 50.13 50.12 50.60 49.83 49.35 48.84 48.14 48.57 48.44 48.13 47.79 47.27
36.66 37.46 32.19 25.70 26.56 30.29 33.34 31.74 35.02 41.07 43.52 44.85 46.11 48.60 52.86 55.94 58.21 59.59 60.28 61.01 61.44 61.56 60.76 59.92 59.39 59.99 58.73 58.20 57.59 56.91 55.97 55.66 54.38 51.88 51.86 50.89 50.07 50.13 50.26 49.53 49.06 48.13 47.28 46.88 46.85 46.43 45.44 45.57 44.69
35.51 33.57 38.50 32.13 30.87 30.72 32.67 34.30 37.58 42.33 42.34 43.17 43.40 44.30 44.35 45.67 47.30 57.07 59.88 60.84 60.85 60.64 59.77 59.22 59.23 60.13 57.56 57.79 56.63 55.50 55.17 53.43 52.37 50.92 50.62 48.93 50.25 49.33 49.46 49.16 48.11 47.37 46.56 46.07 45.89 44.71 43.76 43.72 42.89
37.87 39.29 32.94 33.32 26.34 25.54 28.82 31.06 33.63 37.23 38.73 40.33 40.55 41.17 42.29 43.38 44.22 45.61 49.11 59.73 61.04 61.49 61.09 59.76 59.48 59.04 56.97 57.27 56.61 55.41 54.62 53.33 51.00 49.60 48.68 48.79 49.43 49.23 48.89 47.91 47.45 46.47 45.78 45.21 44.92 43.76 43.39 42.40 41.64
35.58 34.98 35.01 35.91 33.87 29.31 26.82 31.06 39.20 38.25 38.68 37.94 38.57 39.55 40.24 41.08 42.18 44.56 50.41 50.71 60.69 61.35 59.56 58.41 58.38 57.46 56.09 55.28 53.90 53.64 53.00 51.91 50.09 49.01 48.11 49.10 48.84 48.48 48.11 47.23 46.37 45.49 44.67 44.69 44.09 42.97 42.03 41.15 40.39
34.00 31.56 32.94 32.20 29.73 32.40 33.53 30.83 41.30 40.62 38.88 37.61 36.96 37.91 39.45 40.61 41.28 42.94 47.29 55.17 58.19 58.96 58.70 57.76 56.89 55.95 55.14 54.86 53.62 51.85 50.55 49.44 47.77 47.02 47.57 49.43 48.27 48.27 47.80 46.48 45.58 44.42 44.11 44.08 42.89 41.29 40.86 39.93 39.39
MSLP
1011.33 1011.37 1011.20 1010.86 1010.77 1009.53 1008.20 1007.54 1007.38 1007.34 1007.64 1008.07 1008.66 1008.89 1009.16 1010.19 1011.05 1012.23 1012.58 1012.96 1013.33 1013.89 1014.53 1015.03 1015.52 1015.87 1016.12 1016.26 1016.42 1016.53 1016.70 1016.88 1016.90 1016.92 1017.00 1017.05 1017.26 1017.36 1017.56 1017.69 1017.76 1017.85 1018.03 1018.32 1018.46 1018.64 1019.01 1019.15 1019.32
1011.26 1011.30 1011.02 1010.52 1009.79 1008.54 1007.63 1007.18 1006.98 1006.89 1007.51 1008.18 1008.96 1009.27 1009.53 1010.78 1011.72 1012.44 1012.59 1013.03 1013.44 1014.11 1014.72 1015.03 1015.63 1015.98 1016.21 1016.41 1016.58 1016.75 1016.94 1017.11 1017.21 1017.26 1017.31 1017.43 1017.58 1017.71 1017.86 1018.01 1018.16 1018.34 1018.51 1018.62 1018.82 1019.04 1019.31 1019.52 1019.57
1011.08 1010.99 1010.50 1010.09 1009.39 1008.01 1007.22 1007.01 1006.84 1007.34 1007.75 1007.98 1008.99 1009.63 1010.09 1011.12 1012.02 1012.31 1012.39 1012.94 1013.50 1014.32 1014.94 1015.27 1015.76 1016.07 1016.26 1016.52 1016.75 1016.94 1017.17 1017.38 1017.49 1017.55 1017.66 1017.76 1017.90 1018.09 1018.26 1018.41 1018.59 1018.70 1018.82 1019.00 1019.22 1019.51 1019.74 1019.78 1019.74
1010.66 1010.72 1010.88 1010.01 1008.89 1008.26 1007.48 1006.88 1007.00 1007.41 1008.05 1008.44 1008.94 1009.92 1011.04 1011.53 1011.83 1012.29 1012.70 1013.01 1013.68 1014.63 1015.03 1015.65 1015.97 1016.17 1016.39 1016.64 1016.82 1017.18 1017.38 1017.51 1017.82 1017.84 1017.95 1018.06 1018.32 1018.47 1018.64 1018.79 1018.95 1019.13 1019.33 1019.52 1019.71 1019.87 1019.93 1019.88 1019.82
1010.55 1010.42 1009.86 1009.48 1008.66 1007.99 1007.45 1007.00 1007.09 1007.28 1007.77 1008.50 1008.94 1010.27 1011.42 1012.23 1012.26 1012.63 1012.86 1013.20 1013.93 1014.78 1015.11 1015.67 1016.18 1016.34 1016.60 1016.78 1016.99 1017.37 1017.55 1017.64 1017.83 1018.09 1018.23 1018.39 1018.64 1018.92 1019.08 1019.23 1019.39 1019.60 1019.80 1019.91 1019.99 1019.99 1019.97 1019.95 1019.90
1010.03 1010.06 1009.47 1008.85 1008.25 1007.77 1007.19 1006.98 1007.03 1007.35 1007.84 1008.78 1009.28 1010.42 1012.07 1012.75 1012.64 1012.75 1013.09 1013.48 1013.97 1014.84 1015.39 1015.78 1016.39 1016.62 1016.84 1017.01 1017.21 1017.43 1017.66 1017.89 1018.05 1018.22 1018.42 1018.68 1018.87 1019.12 1019.38 1019.60 1019.75 1019.91 1020.08 1020.15 1020.19 1020.19 1020.16 1020.15 1020.18
1009.22 1009.39 1008.83 1008.49 1007.98 1007.43 1006.92 1007.01 1006.90 1007.31 1007.83 1008.51 1009.20 1010.50 1012.62 1012.99 1013.03 1013.18 1013.25 1013.76 1014.42 1015.11 1015.65 1016.06 1016.31 1016.82 1017.12 1017.34 1017.46 1017.71 1017.89 1018.07 1018.31 1018.51 1018.67 1018.85 1019.09 1019.40 1019.63 1019.84 1020.08 1020.26 1020.36 1020.35 1020.36 1020.40 1020.41 1020.43 1020.50
1008.93 1009.01 1008.61 1008.07 1007.64 1007.23 1007.05 1007.13 1007.27 1007.46 1008.10 1008.69 1009.24 1009.98 1011.93 1012.56 1013.16 1013.24 1013.38 1014.01 1014.75 1015.56 1015.84 1016.26 1016.68 1016.92 1017.26 1017.48 1017.77 1017.93 1018.15 1018.41 1018.55 1018.79 1019.02 1019.27 1019.44 1019.64 1019.84 1020.06 1020.25 1020.39 1020.39 1020.36 1020.39 1020.47 1020.56 1020.54 1020.61
1009.07 1008.64 1008.02 1007.59 1007.46 1006.98 1007.17 1007.08 1007.53 1007.80 1008.02 1008.56 1009.25 1009.81 1010.45 1012.31 1013.08 1013.42 1013.63 1014.25 1015.07 1015.59 1016.08 1016.33 1016.83 1017.18 1017.60 1017.66 1017.82 1018.10 1018.36 1018.61 1018.81 1018.96 1019.20 1019.32 1019.30 1019.52 1019.75 1020.15 1020.34 1020.46 1020.47 1020.50 1020.50 1020.48 1020.53 1020.66 1020.71
1008.44 1008.02 1007.50 1007.10 1006.91 1006.83 1007.02 1007.16 1007.46 1007.81 1008.15 1008.67 1009.59 1010.43 1010.98 1012.46 1013.02 1013.15 1013.17 1013.66 1014.64 1015.27 1015.92 1016.41 1016.78 1017.04 1017.61 1017.82 1018.00 1018.18 1018.34 1018.50 1018.78 1019.03 1019.24 1019.25 1019.56 1019.67 1019.80 1020.19 1020.46 1020.54 1020.54 1020.59 1020.60 1020.57 1020.44 1020.18 1020.15
1008.19 1007.35 1007.09 1006.82 1006.86 1006.95 1006.94 1007.25 1007.47 1007.58 1008.09 1007.96 1008.80 1010.31 1011.26 1012.15 1012.81 1012.85 1012.86 1012.84 1013.82 1014.68 1015.49 1016.27 1016.75 1017.03 1017.32 1017.67 1018.23 1018.40 1018.56 1018.73 1018.92 1019.14 1019.31 1019.49 1019.57 1019.77 1019.86 1020.03 1020.21 1020.35 1020.56 1020.31 1020.35 1020.25 1020.23 1020.38 1020.38
1008.00 1007.22 1006.89 1006.63 1006.67 1006.88 1006.94 1007.15 1007.44 1007.39 1007.01 1007.18 1008.37 1009.41 1010.38 1011.48 1011.75 1011.93 1012.12 1012.31 1013.39 1014.44 1015.01 1015.89 1016.45 1016.90 1017.30 1017.51 1017.98 1018.46 1018.63 1018.82 1018.86 1019.13 1019.34 1019.45 1019.48 1019.69 1019.84 1019.90 1020.21 1020.32 1020.38 1020.46 1020.52 1020.71 1021.09 1021.14 1021.21
1007.79 1006.99 1006.74 1006.60 1006.64 1006.59 1006.98 1007.01 1007.09 1006.97 1007.09 1007.37 1008.35 1009.67 1010.18 1010.74 1011.38 1011.97 1012.34 1012.66 1013.02 1013.94 1014.69 1015.46 1015.86 1016.59 1017.31 1017.51 1017.85 1018.25 1018.68 1018.87 1019.08 1019.16 1019.36 1019.36 1019.37 1019.60 1019.80 1020.08 1020.23 1020.42 1020.56 1020.66 1020.88 1021.14 1021.59 1021.61 1021.89
1007.30 1007.12 1006.77 1006.65 1006.49 1006.51 1006.59 1006.97 1007.33 1006.46 1006.92 1007.65 1008.29 1008.91 1009.66 1010.34 1011.00 1011.77 1012.09 1012.53 1012.66 1013.43 1014.25 1015.09 1015.37 1015.90 1016.65 1017.47 1017.79 1018.12 1018.56 1019.05 1019.26 1019.42 1019.48 1019.51 1019.50 1019.65 1019.80 1020.29 1020.57 1020.76 1020.99 1021.15 1021.23 1021.59 1021.74 1021.89 1022.42
1007.45 1007.37 1007.03 1006.79 1006.48 1006.24 1006.34 1006.52 1006.27 1006.26 1006.85 1007.41 1008.14 1008.81 1009.57 1010.16 1010.84 1011.29 1011.79 1012.49 1012.79 1012.98 1013.90 1014.68 1015.23 1015.89 1016.56 1016.98 1017.52 1018.02 1018.47 1018.95 1019.24 1019.53 1019.74 1019.74 1019.72 1019.90 1020.02 1020.32 1020.71 1020.99 1021.26 1021.52 1021.83 1022.12 1022.33 1022.69 1023.25
1007.75 1007.67 1007.09 1006.73 1006.50 1006.22 1006.18 1005.33 1005.03 1005.99 1006.54 1007.11 1007.89 1008.61 1009.19 1009.68 1010.22 1010.90 1011.58 1012.32 1013.03 1013.16 1013.61 1014.50 1015.07 1015.75 1016.35 1017.03 1017.33 1017.80 1018.37 1018.88 1019.36 1019.70 1019.87 1020.08 1020.17 1020.28 1020.36 1020.54 1020.89 1021.24 1021.49 1021.71 1021.99 1022.31 1022.70 1023.24 1023.75
1008.25 1007.40 1007.20 1006.90 1006.44 1006.34 1006.18 1005.37 1004.87 1005.76 1006.42 1006.91 1007.40 1008.11 1008.79 1009.53 1010.15 1010.56 1011.06 1012.00 1012.70 1013.20 1013.44 1014.29 1014.95 1015.45 1016.16 1016.90 1017.55 1018.14 1018.63 1018.86 1019.34 1019.66 1019.97 1020.25 1020.29 1020.49 1020.55 1020.74 1021.22 1021.50 1021.59 1021.89 1022.10 1022.63 1022.99 1023.63 1024.34
1007.75 1007.84 1007.53 1006.83 1006.68 1006.41 1005.90 1005.26 1005.32 1005.62 1006.15 1006.46 1006.92 1007.66 1008.43 1008.99 1009.19 1010.11 1010.82 1011.66 1012.61 1013.10 1013.59 1014.04 1014.80 1015.47 1016.23 1016.95 1017.82 1018.52 1019.03 1019.14 1019.43 1019.64 1019.94 1020.35 1020.54 1020.75 1020.89 1021.14 1021.43 1021.51 1021.58 1022.00 1022.39 1022.86 1023.46 1023.96 1024.52
1007.81 1007.79 1007.59 1007.31 1007.07 1006.56 1006.09 1005.46 1004.79 1005.56 1005.97 1006.41 1006.83 1007.23 1007.76 1008.22 1008.90 1009.88 1010.68 1011.39 1012.38 1012.83 1013.56 1014.21 1014.89 1015.55 1016.03 1016.77 1017.74 1018.51 1018.84 1019.31 1019.46 1019.71 1020.17 1020.52 1020.62 1020.94 1021.17 1021.37 1021.72 1022.03 1021.99 1022.18 1022.58 1023.10 1023.73 1024.57 1025.05
1008.03 1007.96 1007.90 1007.65 1007.30 1006.96 1006.25 1005.60 1005.13 1005.51 1005.49 1005.41 1005.83 1006.62 1007.20 1008.09 1008.83 1009.64 1010.41 1011.02 1011.93 1012.18 1013.08 1014.04 1014.90 1015.43 1015.80 1016.23 1017.02 1017.77 1018.39 1019.20 1019.20 1019.72 1020.20 1020.58 1020.73 1020.87 1021.16 1021.38 1021.65 1022.02 1022.14 1022.51 1022.84 1023.09 1023.64 1024.43 1024.73
1008.20 1007.98 1007.88 1007.68 1007.49 1007.19 1006.73 1005.78 1005.12 1004.78 1005.09 1005.29 1005.73 1006.22 1006.96 1007.43 1008.07 1009.01 1009.79 1010.48 1011.41 1011.93 1012.40 1013.12 1014.38 1014.61 1015.29 1015.84 1016.72 1017.76 1018.50 1019.20 1019.47 1019.77 1020.18 1020.56 1020.94 1020.98 1021.13 1021.65 1021.78 1021.90 1022.03 1022.38 1022.77 1023.09 1023.29 1023.69 1024.81
1007.82 1007.67 1007.65 1007.72 1007.63 1007.16 1007.03 1005.60 1005.24 1004.76 1004.55 1004.81 1005.33 1005.77 1006.28 1007.01 1007.75 1008.42 1009.25 1010.08 1010.55 1011.47 1012.67 1012.81 1013.66 1014.29 1014.99 1015.45 1015.85 1016.32 1016.82 1017.62 1018.12 1018.88 1019.80 1020.41 1020.87 1021.14 1021.22 1021.51 1021.98 1022.06 1022.03 1022.36 1022.64 1022.94 1023.19 1023.50 1023.95
1006.96 1007.18 1007.51 1007.71 1007.64 1007.58 1007.26 1006.62 1005.15 1005.28 1004.46 1003.78 1004.38 1005.27 1005.82 1006.38 1007.18 1007.86 1008.34 1008.82 1009.67 1010.55 1011.44 1012.28 1013.16 1013.78 1014.39 1014.91 1015.24 1015.75 1016.51 1017.02 1018.02 1019.01 1019.76 1020.64 1020.98 1021.23 1021.36 1021.64 1022.00 1022.36 1022.28 1022.60 1022.85 1023.23 1023.47 1023.76 1024.05
1006.51 1007.27 1007.87 1008.04 1007.87 1007.33 1006.65 1006.60 1005.73 1005.41 1005.02 1004.43 1004.25 1005.20 1005.69 1006.08 1006.69 1007.21 1007.79 1008.54 1009.20 1010.27 1011.13 1011.68 1012.36 1012.99 1013.82 1014.51 1014.96 1015.45 1016.07 1017.18 1018.06 1018.99 1019.74 1020.25 1021.10 1021.24 1021.64 1021.94 1022.23 1022.63 1022.89 1022.94 1023.16 1023.46 1023.80 1024.08 1024.46
1006.17 1006.66 1007.35 1007.79 1007.58 1006.62 1006.87 1007.00 1006.58 1006.69 1006.38 1005.95 1005.54 1005.27 1005.48 1006.28 1006.95 1007.45 1007.96 1008.55 1009.20 1009.92 1010.78 1011.57 1012.24 1012.59 1013.24 1014.10 1014.73 1015.30 1015.99 1016.70 1017.51 1018.47 1019.16 1020.12 1020.67 1021.06 1021.67 1022.02 1022.51 1022.74 1023.12 1023.42 1023.62 1023.78 1024.18 1024.57 1024.83
1005.62 1005.59 1005.52 1005.86 1006.46 1006.56 1007.38 1007.13 1007.84 1008.07 1007.80 1007.15 1007.05 1006.91 1006.68 1006.71 1007.08 1007.54 1007.91 1008.35 1008.94 1009.71 1010.39 1011.18 1011.85 1012.41 1013.19 1014.18 1015.02 1015.69 1016.24 1016.90 1017.69 1018.22 1019.19 1020.08 1020.32 1021.02 1021.62 1022.25 1022.63 1023.04 1023.44 1023.44 1023.95 1024.19 1024.53 1024.98 1025.42
1005.86 1005.75 1005.78 1006.07 1006.82 1006.78 1007.11 1007.97 1008.63 1008.60 1008.35 1008.25 1008.31 1008.39 1008.66 1008.54 1008.51 1008.04 1007.99 1008.27 1008.68 1009.25 1010.09 1011.23 1012.33 1012.87 1013.30 1013.94 1014.69 1015.33 1016.18 1016.95 1017.69 1018.54 1019.29 1020.30 1020.74 1021.07 1021.65 1022.22 1022.94 1023.24 1023.82 1023.78 1024.26 1024.45 1024.90 1025.26 1025.85
1005.66 1005.78 1006.32 1006.36 1006.40 1006.67 1007.57 1008.03 1008.58 1009.58 1009.91 1010.14 1010.09 1010.27 1010.26 1010.06 1009.74 1009.37 1008.87 1008.31 1008.39 1008.71 1009.56 1010.53 1011.30 1012.32 1013.20 1014.02 1014.68 1015.32 1015.92 1016.96 1017.66 1018.46 1019.22 1020.07 1020.70 1021.08 1021.59 1022.18 1023.03 1023.33 1024.23 1024.20 1024.50 1025.04 1025.59 1025.50 1026.23
1006.97 1006.42 1006.45 1006.30 1006.42 1006.11 1007.47 1008.56 1009.65 1010.55 1011.28 1011.77 1012.05 1012.02 1011.85 1011.54 1011.02 1010.20 1009.11 1008.49 1008.25 1008.85 1009.90 1010.65 1011.28 1012.02 1012.58 1013.05 1014.14 1015.13 1015.99 1016.86 1017.76 1018.25 1019.11 1019.86 1020.47 1021.10 1021.45 1022.04 1022.65 1023.16 1023.92 1024.47 1024.75 1025.24 1025.64 1025.91 1026.39
1008.82 1008.65 1008.08 1007.14 1007.15 1007.09 1007.15 1009.41 1010.39 1011.41 1012.35 1012.96 1013.27 1013.32 1013.13 1012.78 1012.09 1011.23 1010.31 1009.18 1008.88 1009.41 1010.04 1010.63 1011.30 1011.92 1012.76 1013.66 1014.38 1015.03 1015.92 1016.69 1017.45 1018.24 1018.83 1019.76 1020.26 1020.97 1021.40 1022.10 1022.63 1023.20 1023.78 1024.14 1025.02 1025.36 1025.75 1026.30 1026.78
Wind_Speed
7 6 3 2 3 1 3 2 1 5 4 1 13 4 11 5 4 2 3 8 11 15 13 15 11 11 11 11 11 10 10 10 10 11 12 13 13 14 14 14 15 16 18 19 20 19 17 17 14
6 3 2 2 3 3 3 1 8 9 4 15 9 9 6 5 4 6 12 9 14 13 12 13 11 11 12 10 11 11 11 10 10 10 12 12 13 14 14 13 15 16 17 18 19 18 16 14 11
5 1 2 2 2 4 1 3 2 7 13 14 5 4 3 7 6 11 9 15 16 13 10 12 12 11 12 11 11 10 11 10 8 9 11 13 14 13 14 13 14 15 16 17 17 16 14 11 10
3 2 3 2 6 3 2 3 8 13 5 4 7 7 5 4 11 7 15 19 16 11 11 12 11 12 12 11 11 10 12 11 10 9 10 13 13 13 13 11 13 14 15 16 15 14 12 10 10
2 0 2 2 3 3 4 4 13 11 7 7 4 6 5 3 12 18 18 16 15 12 12 14 10 11 12 12 12 10 10 11 11 10 10 11 13 13 11 11 12 13 13 13 12 12 10 10 9
3 0 2 4 4 3 5 6 10 7 6 7 6 7 3 9 17 17 15 15 15 13 13 12 11 9 10 11 11 11 10 9 11 10 10 11 11 11 11 11 11 10 10 10 10 10 10 9 9
4 3 3 3 2 3 2 1 9 9 8 6 11 7 5 10 15 17 17 15 13 11 10 10 11 10 8 9 10 9 9 9 9 9 9 10 10 10 10 9 9 9 8 8 8 9 8 8 9
4 3 3 4 3 3 1 2 2 2 4 8 5 7 8 14 15 17 17 15 13 8 9 10 9 9 8 9 9 10 9 9 9 9 9 9 9 9 9 8 8 7 7 7 7 7 8 8 8
3 4 6 5 7 3 4 2 2 2 9 3 4 6 6 22 19 18 18 14 11 9 8 9 9 9 7 7 8 9 9 9 8 8 8 7 6 7 7 7 7 6 5 5 7 6 5 6 7
5 6 9 4 5 4 4 3 7 5 10 3 5 9 23 22 19 21 20 19 18 15 11 10 10 10 9 6 7 6 7 6 6 6 7 5 6 5 5 5 5 4 4 5 6 6 4 2 6
6 8 8 3 5 3 3 2 7 7 9 8 11 19 25 25 21 21 21 22 21 19 12 13 9 9 10 8 5 4 4 4 4 6 5 5 5 4 4 3 3 2 2 2 3 4 5 7 6
5 9 6 2 4 5 4 5 6 12 7 10 16 24 27 27 25 23 23 23 22 19 17 15 12 10 9 6 5 5 4 4 3 3 4 4 3 4 4 3 3 2 2 4 5 5 7 9 11
6 4 7 9 5 4 5 6 5 10 4 7 19 23 26 24 24 19 18 19 21 20 18 16 15 12 8 8 6 5 4 3 3 3 3 3 3 3 4 3 3 4 4 5 5 6 7 8 11
5 6 3 3 7 4 6 3 5 5 9 15 21 26 24 24 23 19 19 19 21 20 19 17 16 14 12 7 8 6 4 4 3 2 3 4 3 4 5 5 5 5 5 5 5 6 7 8 10
2 3 4 6 5 5 6 8 9 6 13 18 20 22 20 21 21 20 18 18 19 18 18 17 16 13 12 11 10 6 5 4 4 3 4 5 5 5 7 6 5 5 5 7 7 8 8 9 10
3 1 9 3 8 4 10 16 15 12 16 17 19 19 18 23 22 18 17 16 16 16 18 16 13 14 13 9 8 7 6 5 4 3 3 5 5 6 6 5 5 5 5 5 6 6 8 9 9
2 5 7 7 6 4 13 9 10 12 14 16 18 19 17 18 19 19 17 16 16 16 17 16 16 16 14 11 8 7 8 5 5 4 3 5 6 6 5 5 5 5 5 5 6 6 7 9 10
8 7 4 4 2 6 10 10 5 9 14 16 17 18 17 18 22 18 17 16 15 15 15 15 14 15 13 9 8 6 5 5 5 5 4 5 4 5 5 4 5 5 5 6 6 9 9 9 10
7 4 4 3 2 2 6 15 15 5 11 12 14 17 18 20 17 16 17 16 17 15 15 15 14 13 11 9 7 5 5 6 5 4 6 6 6 6 5 4 5 4 4 6 9 11 13 10 12
5 5 5 4 5 4 4 10 12 5 8 17 17 16 18 16 15 16 17 18 16 18 15 15 14 15 12 9 7 5 7 5 6 5 5 5 6 6 5 5 5 5 6 8 10 12 10 9 7
5 9 7 6 1 1 2 9 9 5 6 6 11 15 16 20 21 19 19 18 17 17 17 16 16 18 15 13 10 7 7 5 5 6 6 5 6 6 6 5 5 6 5 7 9 10 9 9 5
9 12 8 6 3 4 4 6 9 7 13 9 13 15 17 18 20 19 19 19 18 16 15 18 18 17 14 16 13 17 12 11 6 8 7 6 7 7 6 6 5 5 5 6 7 8 8 8 8
6 8 12 6 6 2 4 4 3 2 13 17 10 15 16 18 20 20 22 22 21 16 15 14 17 17 16 16 15 13 11 6 8 7 11 7 6 6 7 6 6 5 4 5 6 7 7 6 6
11 7 5 3 3 6 9 8 3 4 7 12 9 10 14 17 19 20 20 18 18 17 14 14 17 18 17 17 16 16 15 11 10 10 8 7 5 6 6 6 6 5 5 5 5 6 6 5 4
6 8 5 6 6 5 4 7 2 12 11 8 10 10 4 10 12 13 16 16 16 18 14 12 15 18 18 18 17 16 14 14 14 13 8 10 7 6 7 8 7 6 7 6 6 7 7 6 5
15 13 6 8 7 7 5 6 2 7 9 11 15 14 13 6 5 11 14 14 15 15 14 14 16 16 15 15 14 12 12 6 7 9 8 6 7 8 9 8 8 8 8 9 8 7 7 9 8
6 11 4 6 2 4 4 5 4 8 15 17 18 17 16 13 13 8 9 12 14 16 16 14 13 11 12 14 12 12 11 11 9 9 9 5 7 9 10 10 9 9 8 10 9 8 10 10 9
5 10 7 2 8 6 3 4 4 6 11 14 17 17 16 16 15 12 9 13 14 15 15 13 14 14 11 11 11 10 11 10 10 10 10 10 10 11 12 11 11 11 9 10 10 9 9 12 8
5 6 2 4 3 11 7 4 2 5 8 11 12 14 16 16 16 15 14 9 12 11 11 10 10 11 14 14 12 12 10 10 10 10 10 11 12 13 13 13 13 13 12 10 10 10 11 11 11
6 3 3 10 11 4 6 5 6 7 8 9 11 12 14 16 16 17 17 16 2 7 10 11 9 9 9 9 11 11 11 11 11 11 11 13 13 12 13 12 13 13 12 13 12 12 11 12 11
Wind_Direction
125 134 122 157 220 246 240 208 182 170 182 225 156 170 161 90 170 62 98 131 135 140 155 161 154 149 141 135 121 108 105 103 97 94 88 90 98 103 97 102 100 101 103 104 102 100 99 98 97
142 133 93 107 235 199 229 174 206 202 137 132 121 118 139 108 110 130 140 136 140 138 157 160 151 144 136 131 120 114 112 108 101 97 100 96 93 92 99 96 101 101 105 104 104 102 99 93 85
148 327 177 134 186 230 226 230 169 122 135 149 123 43 104 120 125 148 131 140 141 141 160 153 146 140 132 129 122 116 113 102 91 95 101 104 102 101 97 103 104 109 108 106 101 98 95 89 80
153 149 93 221 236 253 283 297 147 137 121 148 134 102 91 24 152 156 140 141 137 141 160 138 139 136 133 133 123 122 120 112 105 92 98 104 104 107 100 98 109 107 105 103 102 96 85 75 67
75 115 146 218 253 267 242 280 172 162 140 150 153 136 85 54 130 138 140 138 140 147 148 152 137 137 137 133 127 121 118 118 113 104 104 100 105 100 88 90 91 97 99 97 92 84 75 66 56
127 214 168 223 230 254 265 233 186 174 140 142 114 117 88 143 143 147 139 140 141 141 148 150 141 135 137 133 129 127 120 113 113 107 102 107 104 103 103 101 100 101 103 99 88 77 68 60 50
152 171 202 201 245 271 274 251 201 175 149 175 142 98 125 160 153 149 143 136 131 135 145 150 154 145 129 128 127 127 122 114 109 107 107 106 105 101 102 103 106 103 96 88 83 77 69 57 55
135 176 174 218 199 228 315 148 110 143 157 122 158 145 172 180 159 152 141 130 128 133 148 153 148 153 155 149 134 131 123 116 111 107 106 107 105 102 98 110 100 96 90 79 71 72 67 62 67
146 184 210 220 173 189 158 166 80 110 141 143 140 148 143 152 155 151 144 133 140 141 157 155 153 152 154 150 140 133 126 120 118 114 102 112 102 107 116 87 97 90 77 61 50 40 48 98 88
193 200 208 218 187 175 146 166 162 163 164 150 95 94 134 154 161 161 161 155 165 161 163 170 166 158 155 153 145 137 132 130 126 125 122 113 112 108 100 98 97 85 61 44 39 31 53 78 94
173 216 217 222 210 183 164 201 181 166 204 201 182 151 152 162 172 172 170 162 172 169 165 175 170 169 161 149 147 146 138 134 128 130 136 128 130 130 126 122 118 99 74 62 54 77 65 75 79
200 228 198 208 185 176 206 146 179 190 206 203 166 166 159 172 180 180 176 167 167 174 173 172 174 170 163 153 149 149 149 140 136 124 163 166 163 155 143 126 113 129 98 92 94 84 80 76 74
218 221 210 216 196 221 151 217 213 224 198 182 152 166 174 178 183 183 179 171 165 174 175 174 170 167 167 160 152 150 149 139 108 112 110 169 179 160 151 118 94 93 106 108 101 93 90 90 83
204 226 217 228 220 218 216 170 197 230 158 157 167 178 180 184 184 183 181 182 174 172 176 177 172 165 161 164 158 153 150 134 131 101 86 126 146 151 142 131 113 103 102 94 93 98 94 87 88
152 212 259 223 218 223 189 243 228 164 166 169 179 180 183 189 188 191 188 190 187 175 172 175 166 165 168 162 160 160 146 144 138 113 93 107 122 136 134 131 124 114 106 107 106 102 99 98 93
178 189 235 203 197 237 201 247 249 166 168 177 180 184 186 192 192 191 190 193 198 177 172 169 163 166 166 164 162 156 149 142 135 136 133 126 126 136 135 133 123 121 121 122 117 114 106 101 99
356 227 221 243 207 179 206 220 250 170 188 181 183 189 190 190 195 197 187 194 191 189 170 171 168 167 163 151 147 146 146 144 137 137 143 141 139 143 138 130 126 140 133 126 124 114 117 116 108
189 213 219 208 158 215 196 232 157 195 199 199 190 185 191 194 201 193 191 188 196 188 181 174 169 161 153 139 133 131 139 137 144 146 147 150 147 143 138 127 134 145 137 134 130 123 121 119 117
162 177 201 237 257 282 211 230 248 213 215 206 196 193 192 198 194 188 192 186 189 178 179 177 165 158 154 145 147 148 154 155 144 147 148 158 149 145 145 140 142 146 143 137 139 132 131 125 130
187 196 222 276 261 225 241 248 247 209 229 221 208 199 196 192 187 181 185 185 177 178 170 176 177 167 170 165 160 158 154 167 146 144 142 150 146 141 143 147 145 144 136 141 150 151 143 139 169
186 201 202 221 61 205 261 265 265 253 244 212 207 201 191 187 186 181 183 189 186 190 181 175 178 178 177 163 138 123 115 124 149 156 148 142 145 138 135 137 145 150 155 158 163 168 169 159 175
184 211 199 197 192 219 220 240 253 257 270 216 203 189 189 187 189 185 183 188 189 190 195 186 183 181 178 170 169 171 179 172 180 163 147 145 147 142 139 137 145 150 144 154 166 169 171 175 169
199 173 196 195 200 212 175 247 225 258 245 252 198 196 192 188 186 191 191 190 192 184 183 182 183 184 182 184 184 180 183 164 144 143 143 145 142 141 134 133 135 138 144 144 166 170 173 172 169
143 103 84 83 151 229 192 216 219 235 261 259 265 204 198 195 194 195 196 192 191 189 179 181 184 190 185 189 187 189 174 153 147 154 160 152 154 143 135 131 128 127 129 137 131 143 154 150 133
158 157 147 176 195 226 155 186 4 335 338 300 327 337 271 203 199 200 195 193 191 191 184 181 190 196 190 192 190 188 175 166 167 165 160 155 159 157 153 142 141 132 127 121 126 120 119 122 123
185 190 171 184 185 176 133 197 78 351 25 45 49 43 32 349 258 212 204 200 195 189 185 186 193 196 188 192 192 185 174 170 169 161 162 174 163 157 146 143 138 134 132 123 120 113 109 113 108
172 206 151 102 45 159 160 127 220 20 35 33 29 34 26 19 9 306 249 215 200 198 192 192 202 207 186 190 175 174 166 162 161 153 149 152 155 147 148 141 139 134 132 123 122 117 116 112 110
195 152 177 180 177 181 173 161 116 33 33 32 29 22 16 13 8 354 319 247 224 216 204 188 191 195 178 179 178 179 168 162 151 145 151 159 159 151 148 144 144 134 137 129 126 121 120 117 113
161 186 138 169 191 202 159 165 162 88 57 43 32 25 17 12 8 2 346 296 231 214 194 178 181 179 179 169 162 164 166 161 159 155 153 164 157 159 155 153 150 146 144 139 132 129 131 122 121
67 52 16 218 185 210 203 135 110 102 65 41 34 25 21 18 14 15 18 25 33 196 194 183 170 166 172 172 168 165 159 157 158 159 158 168 160 161 157 157 153 150 149 144 145 144 137 133 131